{"data":{"norad_id":59253,"epoch":"2026-05-24T23:10:29.970624Z","epoch_age_seconds":68112,"freshness":"FRESH","line1":"1 59253U 24049Y   26144.96562466 -.00000427  00000+0 -60109-5 0  9999","line2":"2 59253  43.0024  72.5866 0000799 267.9135  92.1625 15.27574296124067","mean_motion":15.27574296,"eccentricity":7.99e-5,"inclination_deg":43.0024,"raan_deg":72.5866,"arg_perigee_deg":267.9135,"mean_anomaly_deg":92.1625,"bstar":-6.0109e-6,"rev_number":12406,"period_min":94.26710070801,"perigee_km":482.51796578705,"apogee_km":483.61438605456,"semimajor_km":6861.2031759208,"source":"CELESTRAK","updated_at":"2026-05-25T13:38:18.873673Z"}}